This demonstration page uses our WeatherBlox Daily Observations layout. Learn more.

Left ArrowRight Arrow

39.92423, -83.80882

Hourly Observations for January 2, 2022

Temp ( °F °C ) Dew Point ( °F °C ) Humidity (%) Winds ( mph kmh ) Pressure ( in mb ) Visibility ( mi km ) Precip ( " mm )
12:56 am 00:56 Cloudy with Haze 37 3 N/A N/A NNE 12 19 29.67 1005 5 8 0.00 0.00
1:56 am 01:56 Cloudy with Light Rain 36 2 N/A N/A NNE 10 17 29.70 1006 6 10 0.00 0.00
2:56 am 02:56 Cloudy with Light Rain 36 2 N/A N/A NNE 10 17 29.74 1007 7 11 0.00 0.00
3:56 am 03:56 Cloudy with Rain 36 2 N/A N/A N 9 15 29.75 1007 10 16 0.00 0.00
4:56 am 04:56 Cloudy 34 1.1 34 1.1 100 100 N 12 19 29.76 1008 10 16 0.00 0.00
5:56 am 05:56 Cloudy with Light Rain 34 1.1 34 1.1 100 100 N 10 17 29.81 1010 9 14 0.00 0.00
6:56 am 06:56 Cloudy 32 0 32 0 100 100 N 14 22 29.83 1010 10 16 0.00 0.00
7:56 am 07:56 Cloudy 32 0 32 0 100 100 N 10 17 29.85 1011 10 16 0.00 0.00
8:11 am 08:11 Cloudy 32 0 32 0 100 100 N 12 19 29.88 1012 10 16 0.00 0.00
8:56 am 08:56 Cloudy 31 -0.6 31 -0.6 100 100 N 12 19 29.89 1012 10 16 0.00 0.00
9:56 am 09:56 Cloudy 30 -1.1 30 -1.1 100 100 NW 13 20 29.95 1014 10 16 0.00 0.00
10:56 am 10:56 Cloudy 29 -1.7 29 -1.7 100 100 NNW 13 20 29.99 1016 10 16 0.00 0.00
11:50 am 11:50 Cloudy with Light Snow 28 -2 28 -2 100 100 N 14 22 30.03 1017 2 3 0.00 0.00
11:56 am 11:56 Cloudy with Light Snow 28 -2.2 28 -2.2 100 100 NNW 12 19 30.01 1016 1 2 0.00 0.00
12:06 pm 12:06 Cloudy with Light Snow 28 -2 28 -2 100 100 NNW 12 19 30.02 1017 1 2 0.00 0.00
12:17 pm 12:17 Cloudy with Light Snow 28 -2 28 -2 100 100 NNW 13 20 30.02 1017 2 2 0.00 0.00
12:26 pm 12:26 Cloudy with Light Snow 28 -2 28 -2 100 100 NNW 14 22 30.03 1017 3 4 0.00 0.00
12:33 pm 12:33 Cloudy with Light Snow 28 -2 28 -2 100 100 N 15 24 30.03 1017 3 5 0.00 0.00
12:56 pm 12:56 Cloudy with Light Snow 28 -2.2 28 -2.2 100 100 N 13 20 30.01 1016 9 14 0.00 0.00
1:56 pm 13:56 Cloudy 28 -2.2 28 -2.2 100 100 NNW 16 26 30.04 1017 10 16 0.00 0.00
2:56 pm 14:56 Cloudy 28 -2.2 27 -2.8 96 96 NNW 12 19 30.10 1019 10 16 0.00 0.00
3:45 pm 15:45 Cloudy 28 -2 27 -3 93 93 N 9 15 30.13 1020 10 16 0.00 0.00
3:56 pm 15:56 Cloudy 28 -2.2 27 -2.8 96 96 N 9 15 30.14 1021 10 16 0.00 0.00
4:56 pm 16:56 Cloudy 27 -2.8 27 -2.8 100 100 N 12 19 30.13 1020 10 16 0.00 0.00
5:56 pm 17:56 Cloudy 26 -3.3 26 -3.3 100 100 N 12 19 30.16 1022 10 16 0.00 0.00
6:32 pm 18:32 Cloudy 27 -3 27 -3 100 100 N 13 20 30.20 1023 10 16 0.00 0.00
6:56 pm 18:56 Cloudy 26 -3.3 26 -3.3 100 100 N 15 24 30.19 1022 10 16 0.00 0.00
7:56 pm 19:56 Cloudy 26 -3.3 26 -3.3 100 100 N 13 20 30.19 1022 10 16 0.00 0.00
8:56 pm 20:56 Cloudy 26 -3.3 26 -3.3 100 100 N 12 19 30.19 1022 10 16 0.00 0.00
9:15 pm 21:15 Cloudy 27 -3 25 -4 93 93 N 14 22 30.22 1023 10 16 0.00 0.00
9:56 pm 21:56 Cloudy 26 -3.3 25 -3.9 96 96 N 10 17 30.20 1023 10 16 0.00 0.00
10:56 pm 22:56 Cloudy 25 -3.9 25 -3.9 100 100 N 10 17 30.22 1023 10 16 0.00 0.00
11:56 pm 23:56 Cloudy 25 -3.9 24 -4.4 96 96 N 13 20 30.22 1024 10 16 0.00 0.00

Powered by AerisWeather